Change the Weather History Date:

Friday, June 7, 2013

  Actual Average Record
Temperature  
Mean Temperature 57 °F 65 °F  
Max Temperature 71 °F 77 °F 96 °F (1981)
Min Temperature 43 °F 54 °F 32 °F (1897)
Degree Days  
Heating Degree Days 8 3  
Month to date heating degree days 50 24  
Since 1 June heating degree days 50 24  
Since 1 July heating degree days 7865 7679  
Cooling Degree Days 0 3  
Month to date cooling degree days 0 17  
Year to date cooling degree days 42 53  
Since 1 June cooling degree days 0 17  
Growing Degree Days 7 (Base 50)    
Moisture  
Dew Point 47 °F    
Average Humidity 74    
Maximum Humidity 100    
Minimum Humidity 47    
Precipitation  
Precipitation 0.00 in 0.14 in 2.03 in (1953)
Month to date precipitation 0.47 0.90  
Year to date precipitation 12.78 10.23  
Snow  
Snow 0.00 in 0.00 in 0.00 in ()
Month to date snowfall 0.0 0.0  
Since 1 June snowfall 0.0 0.0  
Since 1 July snowfall 43.3 44.5  
Snow Depth 0.00 in    
Sea Level Pressure  
Sea Level Pressure 30.00 in    
Wind  
Wind Speed 3 mph (SE)    
Max Wind Speed 15 mph    
Max Gust Speed 21 mph    
Visibility 7 miles    
Events Fog    
T = Trace of Precipitation, MM = Missing Value Source: NWS Daily Summary

Daily Weather History Graph

Daily Weather History Graph

Search for Another Location

Airport or City:

Trip Planner

Search our weather history database for the weather conditions in past years. The results will help you decide how hot, cold, wet, or windy it might be!

Date:

Astronomy

Jun. 07, 2013 Rise Set
Actual Time 5:46 AM CDT 9:06 PM CDT
Civil Twilight 5:10 AM CDT 9:41 PM CDT
Nautical Twilight 4:24 AM CDT 10:27 PM CDT
Astronomical Twilight 3:27 AM CDT 11:25 PM CDT
Moon 5:11 AM CDT (6/7) 8:19 PM CDT (6/7)
Length of Visible Light 16h 30m
Length of Day
15h 19m
Waning Crescent, 1% of the Moon is Illuminated
Jun 7
Waning Crescent
Jun 8
New
Jun 16
First Quarter
Jun 23
Full
Jun 29
Last Quarter

Hourly Weather History & Observations

Time (CDT) Temp. Dew Point Humidity Pressure Visibility Wind Dir Wind Speed Gust Speed Precip Events Conditions
12:56 AM 48.9 °F 46.9 °F 93% 30.05 in 10.0 mi ENE 3.5 mph - N/A   Clear
1:56 AM 46.9 °F 46.0 °F 97% 30.05 in 10.0 mi Calm Calm - N/A   Clear
2:56 AM 46.0 °F 44.1 °F 93% 30.04 in 10.0 mi Calm Calm - N/A   Clear
3:42 AM 44.6 °F 44.6 °F 100% 30.04 in 0.8 mi Calm Calm - N/A   Clear
3:56 AM 45.0 °F 44.1 °F 97% 30.05 in 0.2 mi Calm Calm - N/A Fog Fog
4:03 AM 44.6 °F 44.6 °F 100% 30.04 in 0.5 mi Calm Calm - N/A Fog Fog
4:15 AM 44.6 °F 44.6 °F 100% 30.04 in 2.0 mi Calm Calm - N/A   Clear
4:23 AM 42.8 °F 42.8 °F 100% 30.04 in 5.0 mi Calm Calm - N/A   Clear
4:56 AM 45.0 °F 44.1 °F 97% 30.04 in 6.0 mi Calm Calm - N/A   Partly Cloudy
5:51 AM 44.6 °F 42.8 °F 93% 30.04 in 2.5 mi Calm Calm - N/A   Scattered Clouds
5:56 AM 43.0 °F 43.0 °F 100% 30.05 in 4.0 mi Calm Calm - N/A   Scattered Clouds
6:06 AM 44.6 °F 42.8 °F 93% 30.04 in 1.5 mi Calm Calm - N/A   Scattered Clouds
6:12 AM 44.6 °F 44.6 °F 100% 30.04 in 2.5 mi Calm Calm - N/A   Scattered Clouds
6:56 AM 48.0 °F 46.0 °F 93% 30.06 in 2.5 mi Calm Calm - N/A   Scattered Clouds
7:03 AM 48.2 °F 46.4 °F 93% 30.05 in 4.0 mi Calm Calm - N/A   Clear
7:56 AM 53.1 °F 50.0 °F 89% 30.06 in 5.0 mi Calm Calm - N/A   Clear
8:56 AM 57.0 °F 52.0 °F 83% 30.06 in 10.0 mi Calm Calm - N/A   Clear
9:56 AM 62.1 °F 52.0 °F 70% 30.05 in 10.0 mi Calm Calm - N/A   Scattered Clouds
10:56 AM 64.0 °F 50.0 °F 60% 30.04 in 10.0 mi Calm Calm - N/A   Mostly Cloudy
11:56 AM 64.9 °F 48.9 °F 56% 30.02 in 10.0 mi Calm Calm - N/A   Mostly Cloudy
12:56 PM 66.9 °F 50.0 °F 54% 30.01 in 10.0 mi SE 3.5 mph - N/A   Mostly Cloudy
1:56 PM 68.0 °F 51.1 °F 55% 29.99 in 10.0 mi Calm Calm - N/A   Mostly Cloudy
2:56 PM 69.1 °F 48.9 °F 49% 29.97 in 10.0 mi Calm Calm - N/A   Scattered Clouds
3:56 PM 68.0 °F 48.9 °F 50% 29.96 in 10.0 mi Calm Calm - N/A   Scattered Clouds
4:56 PM 68.0 °F 52.0 °F 56% 29.94 in 10.0 mi Variable 3.5 mph - N/A   Partly Cloudy
5:56 PM 68.0 °F 48.9 °F 50% 29.92 in 10.0 mi South 3.5 mph - N/A   Partly Cloudy
6:56 PM 66.9 °F 51.1 °F 57% 29.90 in 10.0 mi SSE 5.8 mph - N/A   Partly Cloudy
7:56 PM 64.0 °F 48.9 °F 58% 29.89 in 10.0 mi South 5.8 mph - N/A   Partly Cloudy
8:56 PM 63.0 °F 48.9 °F 60% 29.89 in 10.0 mi SE 5.8 mph - N/A   Clear
9:56 PM 60.1 °F 48.0 °F 64% 29.87 in 10.0 mi ESE 6.9 mph - N/A   Clear
10:56 PM 60.1 °F 48.9 °F 67% 29.88 in 10.0 mi SE 9.2 mph - N/A   Clear
11:56 PM 60.1 °F 48.9 °F 67% 29.86 in 10.0 mi SE 12.7 mph - N/A   Clear